TimeCST,TemperatureF,Dew PointF,Humidity,Sea Level PressureIn,VisibilityMPH,Wind Direction,Wind SpeedMPH,Gust SpeedMPH,PrecipitationIn,Events,Conditions,WindDirDegrees,DateUTC
12:56 AM,59.0,57.9,96,29.97,6.0,SE,4.6,-,N/A,,Overcast,140,2012-12-08 06:56:00
2:56 AM,59.0,57.9,96,29.96,5.0,Calm,Calm,-,N/A,,Overcast,0,2012-12-08 08:56:00
3:56 AM,57.9,55.9,93,29.97,3.0,Calm,Calm,-,N/A,,Overcast,0,2012-12-08 09:56:00
4:07 AM,57.2,57.2,100,29.98,1.8,Calm,Calm,-,N/A,,Overcast,0,2012-12-08 10:07:00
4:23 AM,57.2,57.2,100,29.98,0.5,Calm,Calm,-,N/A,Fog,Fog,0,2012-12-08 10:23:00
4:56 AM,57.0,57.0,100,29.97,0.5,ESE,3.5,-,N/A,Fog,Fog,110,2012-12-08 10:56:00
5:56 AM,57.0,55.9,96,29.99,0.2,ESE,3.5,-,N/A,Fog,Fog,110,2012-12-08 11:56:00
6:51 AM,57.2,55.4,94,30.01,1.0,Calm,Calm,-,N/A,,Overcast,0,2012-12-08 12:51:00
6:56 AM,57.0,55.9,96,30.00,1.0,ESE,4.6,-,N/A,,Overcast,110,2012-12-08 12:56:00
7:17 AM,57.2,55.4,94,30.01,2.0,ESE,4.6,-,N/A,,Overcast,120,2012-12-08 13:17:00
7:56 AM,57.9,57.0,97,30.01,2.5,ESE,3.5,-,N/A,,Overcast,110,2012-12-08 13:56:00
8:03 AM,57.2,57.2,100,30.02,3.0,East,3.5,-,N/A,,Overcast,100,2012-12-08 14:03:00
8:56 AM,59.0,57.9,96,30.02,6.0,SE,5.8,-,N/A,,Overcast,130,2012-12-08 14:56:00
9:56 AM,63.0,59.0,87,30.02,9.0,SSE,5.8,-,N/A,,Overcast,150,2012-12-08 15:56:00
10:10 AM,64.4,59.0,83,30.02,10.0,SE,5.8,-,N/A,,Overcast,140,2012-12-08 16:10:00
10:56 AM,66.9,61.0,81,30.00,10.0,Variable,5.8,-,N/A,,Overcast,0,2012-12-08 16:56:00
11:56 AM,68.0,61.0,78,29.97,10.0,South,5.8,-,N/A,,Overcast,180,2012-12-08 17:56:00
12:10 PM,66.2,60.8,83,29.97,10.0,SSE,8.1,-,N/A,,Overcast,160,2012-12-08 18:10:00
12:20 PM,66.2,60.8,83,29.97,10.0,SSE,4.6,-,N/A,,Overcast,150,2012-12-08 18:20:00
12:56 PM,69.1,61.0,75,29.96,10.0,Variable,3.5,-,N/A,,Overcast,0,2012-12-08 18:56:00
1:18 PM,71.6,62.6,73,29.95,10.0,South,4.6,-,N/A,,Mostly Cloudy,170,2012-12-08 19:18:00
1:42 PM,69.8,62.6,78,29.95,10.0,SSW,5.8,-,N/A,,Scattered Clouds,200,2012-12-08 19:42:00
1:53 PM,69.8,62.6,78,29.95,10.0,SSE,3.5,-,N/A,,Mostly Cloudy,150,2012-12-08 19:53:00
1:56 PM,71.1,62.1,73,29.94,10.0,Variable,5.8,-,N/A,,Mostly Cloudy,0,2012-12-08 19:56:00
2:46 PM,71.6,60.8,69,29.95,10.0,South,9.2,-,N/A,,Scattered Clouds,170,2012-12-08 20:46:00
2:56 PM,72.0,60.1,66,29.94,10.0,South,5.8,-,N/A,,Partly Cloudy,190,2012-12-08 20:56:00
3:56 PM,71.1,60.1,68,29.94,10.0,Calm,Calm,-,N/A,,Clear,0,2012-12-08 21:56:00
4:56 PM,68.0,60.1,76,29.95,10.0,ESE,3.5,-,N/A,,Clear,120,2012-12-08 22:56:00
5:56 PM,66.0,60.1,81,29.97,10.0,SE,3.5,-,N/A,,Clear,130,2012-12-08 23:56:00
6:56 PM,64.0,61.0,90,29.98,10.0,SE,3.5,-,N/A,,Clear,130,2012-12-09 00:56:00
7:56 PM,63.0,61.0,93,29.99,10.0,SE,4.6,-,N/A,,Mostly Cloudy,130,2012-12-09 01:56:00
8:56 PM,63.0,61.0,93,30.00,10.0,Calm,Calm,-,N/A,,Mostly Cloudy,0,2012-12-09 02:56:00
9:56 PM,63.0,61.0,93,30.01,10.0,SSE,3.5,-,N/A,,Overcast,160,2012-12-09 03:56:00
10:56 PM,62.1,61.0,96,30.01,8.0,Calm,Calm,-,N/A,,Overcast,0,2012-12-09 04:56:00
11:56 PM,62.1,60.1,93,30.01,8.0,South,3.5,-,N/A,,Overcast,170,2012-12-09 05:56:00